[[{"header":{"parameterUnit":"m.s-1","parameterCategory":1,"la1":30.2991,"la2":30.254,"lo1":-89.0895,"lo2":-89.0444,"dy":0.0017,"dx":0.0017,"nx":28,"ny":28,"refTime":"2024-03-20T03:00:00:Z","depth":0,"parameterNumber":2,"parameterNumberName":"U-component_of_WINDS"},"data":[0,0,0,0,0,0,0,0,0,0,0,0,0,0,0,0,0,0,0,0,0,0,0,0,0,0,0,0,0,0,0,0,0,0,0,0,0,0,0,0,0,0,0,0,0,0,0,0,0,0,0,0,0,0,0,0,0,0,0.471,0.471,0,0.4717,0.4717,0.4717,0.47,0.47,0.4699,0.4699,0.4705,0.4706,0.4707,0,0,0,0,0,0,0,0,0,0,0,0,0,0.4681,0.4682,0.471,0.471,0.471,0.4717,0.4717,0.4717,0.47,0.47,0.4699,0.4698,0.4705,0.4706,0.4707,0,0,0,0,0,0,0,0,0,0,0,0,0,0.4691,0.4682,0.471,0.4703,0.4702,0.4717,0.4717,0.4717,0.47,0.47,0.4699,0.4698,0.4705,0.4706,0.4707,0.4729,0,0,0.471,0.471,0,0,0,0,0,0,0,0,0.4691,0.4692,0.4704,0.4703,0.4703,0.4707,0.4709,0.4721,0.4701,0.4701,0.4699,0.4698,0.4706,0.4707,0.471,0.4729,0.473,0.471,0.471,0.4711,0.4711,0,0,0,0,0,0,0,0.469,0.4692,0.4713,0.4704,0.4703,0.4699,0.4699,0.4711,0.4708,0.4701,0.47,0.4701,0.4706,0.4709,0.471,0.473,0.471,0.4711,0.4711,0.4712,0.4765,0.4766,0,0,0,0,0,0,0.469,0.4692,0.4713,0.4713,0.4695,0.47,0.47,0.4706,0.4708,0.4707,0.4701,0.47,0.4708,0.4709,0.471,0.4735,0.4711,0.4712,0.4712,0.4764,0.4765,0.4766,0,0,0,0,0,0,0.469,0.4693,0.4712,0.4702,0.4704,0.4701,0.4708,0.4707,0.471,0.4708,0.4708,0.4706,0.4707,0.4709,0.4724,0.4735,0.4712,0.4713,0.4763,0.4765,0.4766,0.4785,0,0,0,0,0,0,0.4689,0.4692,0.4701,0.4702,0.4705,0.4726,0.4709,0.4708,0.4712,0.471,0.4712,0.4712,0.4707,0.4723,0.4725,0.4736,0.4714,0.4762,0.4764,0.4765,0.4783,0.4787,0.479,0,0,0,0,0,0.4688,0.4707,0.4702,0.4704,0.4716,0.4727,0.4728,0.4723,0.4713,0.4721,0.472,0.4711,0.4734,0.4724,0.4727,0.4738,0.4762,0.4763,0.4765,0.4782,0.4786,0.479,0,0,0,0,0,0,0.4707,0.4707,0.4701,0.4721,0.4724,0.4724,0.4735,0.4728,0.4734,0.4732,0.4724,0.4725,0.4741,0.4741,0.4731,0.4759,0.4746,0.4748,0.4758,0.4762,0.4765,0.4764,0.4715,0,0,0,0,0,0.4714,0.4723,0.4722,0.474,0.4742,0.4738,0.4743,0.4738,0.4741,0.4742,0.4742,0.4745,0.4752,0.4757,0.4764,0.4784,0.4783,0.4793,0.4796,0.4798,0.48,0.4809,0.4813,0.4772,0.4772,0.4772,0,0,0.4728,0.4728,0.4735,0.4744,0.4746,0.4755,0.4739,0.475,0.4756,0.4744,0.4757,0.4757,0.476,0.4777,0.4784,0.4778,0.4811,0.4801,0.4803,0.4803,0.4811,0.4815,0.4818,0.4773,0.4773,0.4773,0,0,0.4757,0.4759,0.4773,0.4775,0.4777,0.4775,0.4778,0.4779,0.4778,0.4792,0.4782,0.4789,0.4803,0.4804,0.4807,0.4835,0.4827,0.4838,0.4854,0.4862,0.4865,0.4868,0.4876,0.488,0.484,0.484,0.484,0,0.4773,0.4787,0.4781,0.4791,0.4795,0.4784,0.4797,0.4799,0.4804,0.4806,0.4799,0.4814,0.4816,0.4832,0.4839,0.4842,0.4844,0.4837,0.4866,0.4868,0.4871,0.4878,0.4882,0.4841,0.4841,0.4841,0.4841,0,0.4806,0.4815,0.4826,0.483,0.4835,0.4847,0.4842,0.4848,0.4842,0.484,0.4853,0.4854,0.486,0.4864,0.486,0.4879,0.4875,0.4867,0.4853,0.4876,0.4883,0.4886,0.4843,0.4842,0.4842,0.4842,0,0,0.4847,0.4847,0.4851,0.4852,0.4854,0.4861,0.4872,0.4877,0.4881,0.4885,0.4893,0.4904,0.4896,0.4899,0.4895,0.4902,0.4922,0.4893,0.4893,0.4897,0.4942,0.4947,0.4951,0.4917,0.4918,0.4919,0.4941,0,0.4874,0.4893,0.4887,0.4905,0.4913,0.4902,0.4911,0.4913,0.4911,0.4917,0.4915,0.4922,0.4912,0.4914,0.4921,0.4918,0.4931,0.4917,0.4924,0.4924,0.4922,0.4955,0.496,0.4982,0.4944,0.4945,0.4945,0,0.4908,0.4912,0.4931,0.493,0.4933,0.4942,0.4945,0.4952,0.4953,0.4951,0.4954,0.4947,0.4957,0.4944,0.4957,0.4947,0.495,0.4949,0.495,0.4949,0.4935,0.4953,0.4989,0.4991,0.495,0.495,0.4949,0,0.4934,0.4944,0.4956,0.4958,0.4958,0.4963,0.4964,0.4964,0.4967,0.4971,0.4972,0.4977,0.4979,0.4983,0.4977,0.4969,0.499,0.4978,0.4988,0.4988,0.4992,0.4991,0.5027,0.4996,0.4996,0.4996,0.4996,0,0.4964,0.4975,0.4968,0.4975,0.4987,0.4981,0.4993,0.4992,0.4992,0.4998,0.499,0.4996,0.4989,0.4994,0.499,0.5,0.5002,0.5,0.4998,0.5,0.5,0.5,0.4998,0.4997,0.4997,0.4997,0.4996,0,0.4994,0.499,0.5002,0.5,0.5,0.5009,0.5007,0.5013,0.5011,0.5019,0.502,0.5016,0.5021,0.5017,0.5022,0.5019,0.5032,0.503,0.5032,0.503,0.504,0.5038,0.5076,0.5079,0.5048,0.5048,0.5049,0,0.5013,0.5021,0.502,0.5023,0.5024,0.503,0.5033,0.5026,0.5029,0.5031,0.5037,0.5041,0.5045,0.5054,0.5051,0.5055,0.5051,0.5064,0.5052,0.5053,0.505,0.5049,0.5049,0.5066,0.5067,0.5067,0.5067,0,0.5045,0.5042,0.5047,0.505,0.5054,0.5056,0.5058,0.5061,0.5055,0.5059,0.5064,0.5067,0.5072,0.5076,0.5079,0.5079,0.5071,0.5071,0.5073,0.5074,0.5074,0.5073,0.5037,0.507,0.507,0.507,0.5069,0.5069,0.5069,0.5075,0.5075,0.508,0.508,0.5082,0.5087,0.5085,0.5089,0.5092,0.5089,0.5095,0.5095,0.5098,0.5098,0.5102,0.5097,0.5101,0.5101,0.5102,0.5102,0.5075,0.5103,0.5103,0.5103,0.5103,0.5103,0,0.51,0.5099,0.5103,0.5106,0.5109,0.5102,0.5103,0.5107,0.5112,0.5113,0.5116,0.5121,0.5125,0.5122,0.5126,0.513,0.5126,0.513,0.5129,0.5129,0.5108,0.5105,0.5133,0.5133,0.5133,0.5133,0.5133,0.5133,0.5116,0.5126,0.5123,0.5132,0.5131,0.5137,0.5138,0.5139,0.5139,0.5145,0.5148,0.5146,0.5145,0.5148,0.5151,0.515,0.5151,0.5156,0.5154,0.5134,0.5131,0.5128,0.5125,0.5157,0.5157,0.5174,0.5174,0.5175]},{"header":{"parameterUnit":"m.s-1","parameterCategory":1,"la1":30.2991,"la2":30.254,"lo1":-89.0895,"lo2":-89.0444,"dy":0.0017,"dx":0.0017,"nx":28,"ny":28,"refTime":"2024-03-20T03:00:00:Z","depth":0,"parameterNumber":3,"parameterNumberName":"V-component_of_WINDS"},"data":[0,0,0,0,0,0,0,0,0,0,0,0,0,0,0,0,0,0,0,0,0,0,0,0,0,0,0,0,0,0,0,0,0,0,0,0,0,0,0,0,0,0,0,0,0,0,0,0,0,0,0,0,0,0,0,0,0,0,-0.0541,-0.0541,0,-0.0575,-0.0575,-0.0576,-0.0617,-0.0618,-0.0618,-0.0619,-0.0654,-0.0654,-0.0654,0,0,0,0,0,0,0,0,0,0,0,0,0,-0.0511,-0.0512,-0.054,-0.0541,-0.0541,-0.0575,-0.0575,-0.0576,-0.0617,-0.0618,-0.0618,-0.0619,-0.0654,-0.0654,-0.0654,0,0,0,0,0,0,0,0,0,0,0,0,0,-0.0532,-0.0512,-0.054,-0.0566,-0.0569,-0.0575,-0.0575,-0.0576,-0.0617,-0.0618,-0.0619,-0.062,-0.0653,-0.0654,-0.0654,-0.0638,0,0,-0.0656,-0.0656,0,0,0,0,0,0,0,0,-0.0531,-0.0534,-0.0562,-0.0564,-0.0567,-0.0593,-0.0578,-0.0597,-0.0616,-0.0598,-0.0619,-0.062,-0.0633,-0.0635,-0.0639,-0.064,-0.0641,-0.0656,-0.0656,-0.0656,-0.0657,0,0,0,0,0,0,0,-0.053,-0.0532,-0.0554,-0.0562,-0.0565,-0.0576,-0.058,-0.0582,-0.061,-0.06,-0.0603,-0.0607,-0.0634,-0.0639,-0.064,-0.0642,-0.0656,-0.0656,-0.0657,-0.0657,-0.0632,-0.0631,0,0,0,0,0,0,-0.0524,-0.0531,-0.0553,-0.0555,-0.0551,-0.0576,-0.058,-0.0583,-0.061,-0.0615,-0.0606,-0.0608,-0.0637,-0.064,-0.0642,-0.0625,-0.0656,-0.0657,-0.0657,-0.0633,-0.0632,-0.0631,0,0,0,0,0,0,-0.0524,-0.0526,-0.0552,-0.0544,-0.0548,-0.0575,-0.0578,-0.0584,-0.0588,-0.0614,-0.0619,-0.0605,-0.0638,-0.0641,-0.0639,-0.0627,-0.0657,-0.0658,-0.0634,-0.0633,-0.0632,-0.0592,0,0,0,0,0,0,-0.0523,-0.0525,-0.0519,-0.0543,-0.0548,-0.0548,-0.0578,-0.0584,-0.0589,-0.0593,-0.0615,-0.0619,-0.0639,-0.0638,-0.064,-0.0628,-0.0658,-0.0636,-0.0634,-0.0632,-0.0594,-0.0589,-0.0585,0,0,0,0,0,-0.0521,-0.0506,-0.0519,-0.0521,-0.0541,-0.0547,-0.055,-0.0573,-0.0588,-0.0582,-0.0599,-0.0619,-0.0628,-0.0638,-0.064,-0.0628,-0.0636,-0.0634,-0.0632,-0.0596,-0.059,-0.0585,0,0,0,0,0,0,-0.048,-0.051,-0.0524,-0.0516,-0.0529,-0.0554,-0.0548,-0.0566,-0.0574,-0.0577,-0.0606,-0.061,-0.0605,-0.0617,-0.0627,-0.0615,-0.0635,-0.0633,-0.0607,-0.0602,-0.0597,-0.0595,-0.0658,0,0,0,0,0,-0.047,-0.0472,-0.0498,-0.0489,-0.0495,-0.052,-0.0524,-0.054,-0.0555,-0.056,-0.0577,-0.059,-0.0596,-0.06,-0.0606,-0.0596,-0.0602,-0.0589,-0.0585,-0.0581,-0.0579,-0.0575,-0.057,-0.0624,-0.0624,-0.0624,0,0,-0.0449,-0.0466,-0.0465,-0.0481,-0.0493,-0.0495,-0.0524,-0.0525,-0.0527,-0.056,-0.056,-0.0573,-0.0589,-0.0583,-0.0582,-0.0593,-0.0565,-0.0578,-0.0575,-0.0575,-0.0573,-0.0568,-0.0563,-0.0623,-0.0623,-0.0623,0,0,-0.0412,-0.0425,-0.0419,-0.043,-0.0448,-0.0465,-0.0464,-0.0487,-0.0497,-0.0497,-0.0522,-0.0525,-0.0534,-0.0546,-0.0553,-0.0521,-0.054,-0.0523,-0.0498,-0.0495,-0.049,-0.0487,-0.0477,-0.0472,-0.0521,-0.0521,-0.0521,0,-0.0384,-0.0388,-0.0414,-0.0413,-0.042,-0.045,-0.0445,-0.0455,-0.0474,-0.0478,-0.049,-0.0504,-0.0517,-0.0515,-0.0507,-0.0511,-0.0511,-0.0521,-0.0489,-0.0486,-0.0483,-0.0473,-0.0469,-0.0519,-0.0519,-0.0519,-0.0519,0,-0.0354,-0.0356,-0.0349,-0.0368,-0.0373,-0.037,-0.0396,-0.0398,-0.0415,-0.0431,-0.0431,-0.0448,-0.046,-0.0461,-0.0476,-0.0461,-0.0467,-0.0484,-0.0505,-0.0475,-0.0467,-0.0463,-0.0516,-0.0516,-0.0517,-0.0518,0,0,-0.0291,-0.0324,-0.0321,-0.033,-0.0352,-0.0355,-0.0354,-0.0366,-0.0368,-0.038,-0.0381,-0.0389,-0.0404,-0.0412,-0.043,-0.0426,-0.0402,-0.0444,-0.0444,-0.0436,-0.0387,-0.0375,-0.037,-0.0415,-0.0414,-0.0414,-0.0386,0,-0.0259,-0.0259,-0.0282,-0.0276,-0.0279,-0.0309,-0.0308,-0.0322,-0.0337,-0.0342,-0.0359,-0.0365,-0.0384,-0.039,-0.0388,-0.0405,-0.0393,-0.0408,-0.0416,-0.0416,-0.0411,-0.0366,-0.0353,-0.0326,-0.0383,-0.0382,-0.0382,0,-0.0222,-0.0233,-0.0226,-0.025,-0.0252,-0.0251,-0.0264,-0.0269,-0.0285,-0.0297,-0.0306,-0.0326,-0.0328,-0.0348,-0.035,-0.036,-0.0365,-0.0374,-0.0373,-0.0375,-0.0397,-0.0367,-0.0318,-0.0314,-0.0377,-0.0377,-0.0378,0,-0.0178,-0.0191,-0.0189,-0.0196,-0.0223,-0.0222,-0.0233,-0.0251,-0.0257,-0.0268,-0.0272,-0.0284,-0.029,-0.0299,-0.0322,-0.0334,-0.0322,-0.0344,-0.0332,-0.0331,-0.0328,-0.0328,-0.028,-0.033,-0.033,-0.033,-0.033,0,-0.014,-0.0136,-0.017,-0.0169,-0.0165,-0.0192,-0.0188,-0.0202,-0.0217,-0.022,-0.0246,-0.0248,-0.0278,-0.0284,-0.0302,-0.0302,-0.0304,-0.0314,-0.0319,-0.0312,-0.0311,-0.0316,-0.0319,-0.0329,-0.033,-0.033,-0.033,0,-0.0091,-0.0114,-0.0114,-0.014,-0.0146,-0.0142,-0.0165,-0.0165,-0.0182,-0.0186,-0.0188,-0.0215,-0.0223,-0.0247,-0.0261,-0.0273,-0.0268,-0.0277,-0.0262,-0.0266,-0.0253,-0.0254,-0.0206,-0.0202,-0.0254,-0.0254,-0.0253,0,-0.0066,-0.0063,-0.0089,-0.0092,-0.0103,-0.0108,-0.0115,-0.0141,-0.0147,-0.0166,-0.0164,-0.0175,-0.0184,-0.0196,-0.0217,-0.0228,-0.0238,-0.0221,-0.024,-0.0234,-0.0239,-0.0239,-0.024,-0.0217,-0.0216,-0.0215,-0.0215,0,-0.0018,-0.003,-0.0038,-0.005,-0.0057,-0.0068,-0.0081,-0.0082,-0.0112,-0.0117,-0.0126,-0.0133,-0.0148,-0.0159,-0.0173,-0.0186,-0.0205,-0.0209,-0.0207,-0.02,-0.0192,-0.0197,-0.0252,-0.021,-0.021,-0.021,-0.0211,-0.0211,0.0019,0.002,0.0001,-0.0007,-0.0019,-0.003,-0.0033,-0.005,-0.0058,-0.0072,-0.0087,-0.0095,-0.0113,-0.0134,-0.0145,-0.0152,-0.0162,-0.0159,-0.0159,-0.0158,-0.0155,-0.019,-0.0155,-0.0155,-0.0155,-0.0155,-0.0155,0,0.0064,0.005,0.0043,0.0026,0.0019,0.0001,-0.0013,-0.0018,-0.0024,-0.0039,-0.0048,-0.0059,-0.0069,-0.0091,-0.0104,-0.0105,-0.0114,-0.0107,-0.0108,-0.0111,-0.0144,-0.0145,-0.01,-0.01,-0.01,-0.01,-0.01,-0.01,0.0086,0.0086,0.0072,0.0065,0.0052,0.0044,0.0037,0.0026,0.0014,0.0004,-0.0005,-0.0019,-0.0038,-0.0052,-0.0062,-0.0069,-0.0072,-0.0063,-0.0072,-0.0103,-0.0108,-0.0113,-0.0114,-0.0063,-0.0063,-0.0038,-0.0038,-0.0037]}]]